Time,TemperatureF,DewpointF,PressureIn,WindDirection,WindDirectionDegrees,WindSpeedMPH,WindSpeedGustMPH,Humidity,HourlyPrecipIn,Conditions,Clouds,dailyrainin,SolarRadiationWatts/m^2,SoftwareType,DateUTC
2013-04-28 00:01:00,58.1,57.5,29.89,SE,134,0.0,0.0,98,0.00,,,2.00,0,Wunderground v.1.15,2013-04-28 05:01:00,
2013-04-28 00:07:00,58.0,57.2,29.88,SE,134,0.0,0.0,97,0.00,,,0.00,0,Wunderground v.1.15,2013-04-28 05:07:00,
2013-04-28 00:13:00,57.9,57.3,29.89,SE,134,0.0,0.0,98,0.00,,,0.00,0,Wunderground v.1.15,2013-04-28 05:13:00,
2013-04-28 00:18:00,57.6,56.8,29.89,SE,134,0.0,1.0,97,0.00,,,0.00,0,Wunderground v.1.15,2013-04-28 05:18:00,
2013-04-28 00:24:00,57.5,56.7,29.89,SE,134,0.0,1.0,97,0.00,,,0.00,0,Wunderground v.1.15,2013-04-28 05:24:00,
2013-04-28 00:30:00,57.4,56.6,29.90,SE,134,0.0,0.0,97,0.00,,,0.00,0,Wunderground v.1.15,2013-04-28 05:30:00,
2013-04-28 00:36:00,57.5,56.7,29.90,SE,134,0.0,4.0,97,0.00,,,0.00,0,Wunderground v.1.15,2013-04-28 05:36:00,
2013-04-28 00:42:00,57.7,57.1,29.90,SE,134,0.0,4.0,98,0.00,,,0.00,0,Wunderground v.1.15,2013-04-28 05:42:00,
2013-04-28 00:47:00,57.9,57.3,29.90,SE,134,0.0,4.0,98,0.00,,,0.00,0,Wunderground v.1.15,2013-04-28 05:47:00,
2013-04-28 00:53:00,58.0,57.4,29.90,SE,134,0.0,4.0,98,0.00,,,0.00,0,Wunderground v.1.15,2013-04-28 05:53:00,
2013-04-28 00:59:00,58.2,57.6,29.90,SE,134,0.0,4.0,98,0.00,,,0.00,0,Wunderground v.1.15,2013-04-28 05:59:00,
2013-04-28 01:05:00,58.3,57.7,29.89,SE,134,0.0,0.0,98,0.00,,,0.00,0,Wunderground v.1.15,2013-04-28 06:05:00,
2013-04-28 01:11:00,58.3,57.7,29.89,West,273,1.0,2.0,98,0.00,,,0.00,0,Wunderground v.1.15,2013-04-28 06:11:00,
2013-04-28 01:17:00,58.4,57.8,29.90,West,279,1.0,2.0,98,0.00,,,0.00,0,Wunderground v.1.15,2013-04-28 06:17:00,
2013-04-28 01:22:00,58.3,57.7,29.89,WNW,288,1.0,1.0,98,0.00,,,0.00,0,Wunderground v.1.15,2013-04-28 06:22:00,
2013-04-28 01:28:00,58.3,57.7,29.89,WNW,288,0.0,1.0,98,0.00,,,0.00,0,Wunderground v.1.15,2013-04-28 06:28:00,
2013-04-28 01:34:00,58.3,57.7,29.89,WNW,288,0.0,2.0,98,0.00,,,0.00,0,Wunderground v.1.15,2013-04-28 06:34:00,
2013-04-28 01:40:00,58.2,57.6,29.89,WNW,288,0.0,2.0,98,0.00,,,0.00,0,Wunderground v.1.15,2013-04-28 06:40:00,
2013-04-28 01:46:00,58.2,57.6,29.89,WNW,288,0.0,2.0,98,0.00,,,0.00,0,Wunderground v.1.15,2013-04-28 06:46:00,
2013-04-28 01:52:00,58.3,57.7,29.88,WNW,288,0.0,2.0,98,0.00,,,0.00,0,Wunderground v.1.15,2013-04-28 06:52:00,
2013-04-28 01:58:00,58.4,57.8,29.88,WNW,288,0.0,2.0,98,0.00,,,0.00,0,Wunderground v.1.15,2013-04-28 06:58:00,
2013-04-28 02:04:00,58.4,57.8,29.88,West,281,0.0,1.0,98,0.00,,,0.00,0,Wunderground v.1.15,2013-04-28 07:04:00,
2013-04-28 02:10:00,58.5,57.9,29.87,West,271,0.0,0.0,98,0.00,,,0.00,0,Wunderground v.1.15,2013-04-28 07:10:00,
2013-04-28 02:15:00,58.6,58.0,29.87,SSW,211,0.0,1.0,98,0.00,,,0.00,0,Wunderground v.1.15,2013-04-28 07:15:00,
2013-04-28 02:21:00,58.7,58.1,29.87,SW,221,0.0,0.0,98,0.00,,,0.00,0,Wunderground v.1.15,2013-04-28 07:21:00,
2013-04-28 02:27:00,58.7,58.1,29.87,West,278,0.0,2.0,98,0.00,,,0.00,0,Wunderground v.1.15,2013-04-28 07:27:00,
2013-04-28 02:33:00,58.7,58.1,29.87,WSW,246,1.0,4.0,98,0.00,,,0.00,0,Wunderground v.1.15,2013-04-28 07:33:00,
2013-04-28 02:39:00,58.7,58.1,29.86,West,279,1.0,4.0,98,0.00,,,0.00,0,Wunderground v.1.15,2013-04-28 07:39:00,
2013-04-28 02:45:00,58.7,58.1,29.86,WNW,296,1.0,4.0,98,0.00,,,0.00,0,Wunderground v.1.15,2013-04-28 07:45:00,
2013-04-28 02:50:00,58.7,58.1,29.86,WSW,242,2.0,4.0,98,0.00,,,0.00,0,Wunderground v.1.15,2013-04-28 07:50:00,
2013-04-28 02:56:00,58.6,58.0,29.86,WNW,301,3.0,4.0,98,0.00,,,0.00,0,Wunderground v.1.15,2013-04-28 07:56:00,
2013-04-28 03:02:00,58.6,58.0,29.86,WNW,290,2.0,3.0,98,0.00,,,0.00,0,Wunderground v.1.15,2013-04-28 08:02:00,
2013-04-28 03:08:00,58.5,57.9,29.86,WNW,288,3.0,5.0,98,0.00,,,0.00,0,Wunderground v.1.15,2013-04-28 08:08:00,
2013-04-28 03:14:00,58.5,57.9,29.86,WNW,294,2.0,3.0,98,0.00,,,0.00,0,Wunderground v.1.15,2013-04-28 08:14:00,
2013-04-28 03:20:00,58.5,57.9,29.86,NW,305,2.0,5.0,98,0.00,,,0.00,0,Wunderground v.1.15,2013-04-28 08:20:00,
2013-04-28 03:26:00,58.4,57.8,29.86,WNW,290,3.0,5.0,98,0.00,,,0.00,0,Wunderground v.1.15,2013-04-28 08:26:00,
2013-04-28 03:32:00,58.3,57.7,29.86,WNW,292,3.0,4.0,98,0.00,,,0.00,0,Wunderground v.1.15,2013-04-28 08:32:00,
2013-04-28 03:37:00,58.2,57.6,29.86,WNW,287,3.0,5.0,98,0.00,,,0.00,0,Wunderground v.1.15,2013-04-28 08:37:00,
2013-04-28 03:43:00,58.2,57.6,29.87,NW,325,3.0,6.0,98,0.00,,,0.00,0,Wunderground v.1.15,2013-04-28 08:43:00,
2013-04-28 03:49:00,58.1,57.5,29.87,NW,306,4.0,11.0,98,0.00,,,0.00,0,Wunderground v.1.15,2013-04-28 08:49:00,
2013-04-28 03:55:00,57.5,56.7,29.87,WNW,296,6.0,13.0,97,0.00,,,0.00,0,Wunderground v.1.15,2013-04-28 08:55:00,
2013-04-28 04:00:00,57.2,56.4,29.87,NW,309,6.0,6.0,97,0.00,,,0.00,0,Wunderground v.1.15,2013-04-28 09:00:00,
2013-04-28 04:06:00,56.9,56.1,29.86,WNW,297,5.0,9.0,97,0.00,,,0.00,0,Wunderground v.1.15,2013-04-28 09:06:00,
2013-04-28 04:12:00,56.6,55.8,29.87,WNW,285,5.0,6.0,97,0.00,,,0.00,0,Wunderground v.1.15,2013-04-28 09:12:00,
2013-04-28 04:17:00,56.4,55.6,29.87,WNW,288,5.0,6.0,97,0.00,,,0.00,0,Wunderground v.1.15,2013-04-28 09:17:00,
2013-04-28 04:23:00,56.2,55.4,29.87,WNW,284,4.0,6.0,97,0.00,,,0.00,0,Wunderground v.1.15,2013-04-28 09:23:00,
2013-04-28 04:29:00,56.1,55.3,29.87,WNW,282,3.0,6.0,97,0.00,,,0.00,0,Wunderground v.1.15,2013-04-28 09:29:00,
2013-04-28 04:35:00,56.0,55.2,29.88,West,281,2.0,8.0,97,0.00,,,0.00,0,Wunderground v.1.15,2013-04-28 09:35:00,
2013-04-28 04:41:00,56.0,55.2,29.88,NW,304,3.0,8.0,97,0.00,,,0.00,0,Wunderground v.1.15,2013-04-28 09:41:00,
2013-04-28 04:47:00,55.9,55.1,29.88,West,267,4.0,8.0,97,0.00,,,0.00,0,Wunderground v.1.15,2013-04-28 09:47:00,
2013-04-28 04:53:00,55.9,55.1,29.88,NW,321,3.0,8.0,97,0.00,,,0.00,0,Wunderground v.1.15,2013-04-28 09:53:00,
2013-04-28 04:59:00,55.8,55.0,29.88,NW,312,4.0,8.0,97,0.00,,,0.00,0,Wunderground v.1.15,2013-04-28 09:59:00,
2013-04-28 05:04:00,55.7,54.6,29.88,WNW,297,5.0,12.0,96,0.00,,,0.00,0,Wunderground v.1.15,2013-04-28 10:04:00,
2013-04-28 05:10:00,55.3,54.2,29.89,WNW,300,6.0,6.0,96,0.00,,,0.00,0,Wunderground v.1.15,2013-04-28 10:10:00,
2013-04-28 05:16:00,55.0,54.2,29.89,NW,309,6.0,8.0,97,0.00,,,0.00,0,Wunderground v.1.15,2013-04-28 10:16:00,
2013-04-28 05:22:00,54.9,54.1,29.89,WNW,289,5.0,6.0,97,0.00,,,0.00,0,Wunderground v.1.15,2013-04-28 10:22:00,
2013-04-28 05:28:00,54.7,53.6,29.89,NW,304,5.0,7.0,96,0.00,,,0.00,0,Wunderground v.1.15,2013-04-28 10:28:00,
2013-04-28 05:34:00,54.5,53.4,29.90,WNW,296,5.0,10.0,96,0.00,,,0.00,0,Wunderground v.1.15,2013-04-28 10:34:00,
2013-04-28 05:40:00,54.4,53.3,29.90,West,271,4.0,4.0,96,0.00,,,0.00,0,Wunderground v.1.15,2013-04-28 10:40:00,
2013-04-28 05:45:00,54.3,52.9,29.90,WNW,284,3.0,10.0,95,0.00,,,0.00,0,Wunderground v.1.15,2013-04-28 10:45:00,
2013-04-28 05:51:00,54.1,53.0,29.90,West,268,3.0,10.0,96,0.00,,,0.00,0,Wunderground v.1.15,2013-04-28 10:51:00,
2013-04-28 05:57:00,54.0,52.9,29.90,West,275,3.0,10.0,96,0.00,,,0.00,0,Wunderground v.1.15,2013-04-28 10:57:00,
2013-04-28 06:03:00,53.9,52.8,29.90,WNW,293,3.0,5.0,96,0.00,,,0.00,0,Wunderground v.1.15,2013-04-28 11:03:00,
2013-04-28 06:09:00,53.8,52.7,29.90,WNW,293,3.0,6.0,96,0.00,,,0.00,0,Wunderground v.1.15,2013-04-28 11:09:00,
2013-04-28 06:15:00,53.8,52.7,29.90,WNW,294,5.0,7.0,96,0.00,,,0.00,0,Wunderground v.1.15,2013-04-28 11:15:00,
2013-04-28 06:21:00,53.7,52.6,29.90,NW,311,5.0,5.0,96,0.00,,,0.00,5,Wunderground v.1.15,2013-04-28 11:21:00,
2013-04-28 06:26:00,53.6,52.5,29.90,WNW,298,5.0,7.0,96,0.00,,,0.00,7,Wunderground v.1.15,2013-04-28 11:26:00,
2013-04-28 06:32:00,53.6,52.5,29.91,West,280,5.0,12.0,96,0.00,,,0.00,12,Wunderground v.1.15,2013-04-28 11:32:00,
2013-04-28 06:38:00,53.5,52.1,29.91,NW,317,4.0,12.0,95,0.00,,,0.00,16,Wunderground v.1.15,2013-04-28 11:38:00,
2013-04-28 06:44:00,53.5,52.1,29.91,WNW,290,4.0,12.0,95,0.00,,,0.00,18,Wunderground v.1.15,2013-04-28 11:44:00,
2013-04-28 06:50:00,53.5,52.1,29.92,West,279,4.0,4.0,95,0.00,,,0.00,16,Wunderground v.1.15,2013-04-28 11:50:00,
2013-04-28 06:56:00,53.4,52.3,29.92,WNW,290,2.0,12.0,96,0.00,,,0.00,23,Wunderground v.1.15,2013-04-28 11:56:00,
2013-04-28 07:02:00,53.4,52.3,29.92,WNW,297,2.0,3.0,96,0.00,,,0.00,30,Wunderground v.1.15,2013-04-28 12:02:00,
2013-04-28 07:07:00,53.5,52.4,29.92,WNW,293,2.0,3.0,96,0.00,,,0.00,40,Wunderground v.1.15,2013-04-28 12:07:00,
2013-04-28 07:13:00,53.5,52.4,29.92,WNW,291,2.0,5.0,96,0.00,,,0.00,42,Wunderground v.1.15,2013-04-28 12:13:00,
2013-04-28 07:19:00,53.6,52.5,29.92,NW,304,3.0,5.0,96,0.00,,,0.00,44,Wunderground v.1.15,2013-04-28 12:19:00,
2013-04-28 07:25:00,53.6,52.5,29.92,West,277,2.0,2.0,96,0.00,,,0.00,46,Wunderground v.1.15,2013-04-28 12:25:00,
2013-04-28 07:31:00,53.7,52.6,29.93,WSW,257,2.0,9.0,96,0.00,,,0.00,58,Wunderground v.1.15,2013-04-28 12:31:00,
2013-04-28 07:37:00,53.8,52.7,29.93,West,277,1.0,9.0,96,0.00,,,0.00,72,Wunderground v.1.15,2013-04-28 12:37:00,
2013-04-28 07:43:00,53.9,52.8,29.93,West,273,1.0,9.0,96,0.00,,,0.00,81,Wunderground v.1.15,2013-04-28 12:43:00,
2013-04-28 07:49:00,54.0,52.9,29.93,West,281,2.0,9.0,96,0.00,,,0.00,84,Wunderground v.1.15,2013-04-28 12:49:00,
2013-04-28 07:55:00,54.0,52.9,29.93,SW,223,3.0,9.0,96,0.00,,,0.00,84,Wunderground v.1.15,2013-04-28 12:55:00,
2013-04-28 08:00:00,54.1,52.7,29.93,WNW,283,3.0,5.0,95,0.00,,,0.00,86,Wunderground v.1.15,2013-04-28 13:00:00,
2013-04-28 08:06:00,54.1,52.7,29.93,WNW,283,3.0,5.0,95,0.00,,,0.00,90,Wunderground v.1.15,2013-04-28 13:06:00,
2013-04-28 08:11:00,54.2,52.8,29.93,WNW,290,3.0,3.0,95,0.00,,,0.00,77,Wunderground v.1.15,2013-04-28 13:11:00,
2013-04-28 08:17:00,54.2,52.8,29.93,NW,310,3.0,5.0,95,0.00,,,0.00,109,Wunderground v.1.15,2013-04-28 13:17:00,
2013-04-28 08:23:00,54.3,52.9,29.94,WNW,300,3.0,4.0,95,0.00,,,0.00,153,Wunderground v.1.15,2013-04-28 13:23:00,
2013-04-28 08:29:00,54.6,53.2,29.94,NW,309,3.0,4.0,95,0.00,,,0.00,139,Wunderground v.1.15,2013-04-28 13:29:00,
2013-04-28 08:35:00,54.9,53.2,29.93,WNW,290,4.0,6.0,94,0.00,,,0.00,227,Wunderground v.1.15,2013-04-28 13:35:00,
2013-04-28 08:40:00,55.2,53.2,29.93,South,190,4.0,4.0,93,0.00,,,0.00,248,Wunderground v.1.15,2013-04-28 13:40:00,
2013-04-28 08:46:00,55.6,53.6,29.93,SW,227,3.0,6.0,93,0.00,,,0.00,209,Wunderground v.1.15,2013-04-28 13:46:00,
2013-04-28 08:52:00,55.9,53.9,29.93,WNW,286,3.0,7.0,93,0.00,,,0.00,204,Wunderground v.1.15,2013-04-28 13:52:00,
2013-04-28 08:58:00,55.7,53.1,29.93,WNW,299,4.0,7.0,91,0.00,,,0.00,121,Wunderground v.1.15,2013-04-28 13:58:00,
2013-04-28 09:04:00,55.6,53.3,29.94,West,278,4.0,5.0,92,0.00,,,0.00,193,Wunderground v.1.15,2013-04-28 14:04:00,
2013-04-28 09:09:00,55.7,53.1,29.94,WNW,296,3.0,5.0,91,0.00,,,0.00,167,Wunderground v.1.15,2013-04-28 14:09:00,
2013-04-28 09:15:00,55.8,53.2,29.93,SSW,199,4.0,7.0,91,0.00,,,0.00,135,Wunderground v.1.15,2013-04-28 14:15:00,
2013-04-28 09:21:00,56.0,53.4,29.94,West,263,4.0,4.0,91,0.00,,,0.00,207,Wunderground v.1.15,2013-04-28 14:21:00,
2013-04-28 09:27:00,56.0,53.4,29.94,WSW,253,3.0,7.0,91,0.00,,,0.00,206,Wunderground v.1.15,2013-04-28 14:27:00,
2013-04-28 09:33:00,56.1,53.5,29.94,West,264,3.0,8.0,91,0.00,,,0.00,204,Wunderground v.1.15,2013-04-28 14:33:00,
2013-04-28 09:39:00,56.2,53.3,29.94,NW,308,4.0,8.0,90,0.00,,,0.00,165,Wunderground v.1.15,2013-04-28 14:39:00,
2013-04-28 09:45:00,56.2,53.9,29.94,WNW,296,4.0,8.0,92,0.00,,,0.00,243,Wunderground v.1.15,2013-04-28 14:45:00,
2013-04-28 09:50:00,56.4,53.8,29.94,WNW,300,4.0,8.0,91,0.00,,,0.00,190,Wunderground v.1.15,2013-04-28 14:50:00,
2013-04-28 09:56:00,56.3,53.1,29.94,West,277,5.0,9.0,89,0.00,,,0.00,186,Wunderground v.1.15,2013-04-28 14:56:00,
2013-04-28 10:02:00,56.2,53.0,29.94,WSW,257,5.0,7.0,89,0.00,,,0.00,171,Wunderground v.1.15,2013-04-28 15:02:00,
2013-04-28 10:08:00,56.1,53.2,29.94,WNW,284,5.0,7.0,90,0.00,,,0.00,251,Wunderground v.1.15,2013-04-28 15:08:00,
2013-04-28 10:14:00,56.5,53.6,29.93,NW,306,5.0,7.0,90,0.00,,,0.00,330,Wunderground v.1.15,2013-04-28 15:14:00,
2013-04-28 10:20:00,56.7,53.5,29.93,WSW,258,5.0,5.0,89,0.00,,,0.00,269,Wunderground v.1.15,2013-04-28 15:20:00,
2013-04-28 10:26:00,56.6,53.4,29.93,West,271,4.0,6.0,89,0.00,,,0.00,237,Wunderground v.1.15,2013-04-28 15:26:00,
2013-04-28 10:32:00,56.7,53.5,29.93,WNW,297,5.0,9.0,89,0.00,,,0.00,264,Wunderground v.1.15,2013-04-28 15:32:00,
2013-04-28 10:38:00,57.3,53.5,29.93,WNW,302,6.0,9.0,87,0.00,,,0.00,308,Wunderground v.1.15,2013-04-28 15:38:00,
2013-04-28 10:43:00,57.1,53.3,29.93,WNW,282,5.0,9.0,87,0.00,,,0.00,214,Wunderground v.1.15,2013-04-28 15:43:00,
2013-04-28 10:49:00,57.1,53.6,29.93,WSW,247,4.0,9.0,88,0.00,,,0.00,250,Wunderground v.1.15,2013-04-28 15:49:00,
2013-04-28 10:55:00,57.1,53.3,29.93,WNW,302,5.0,9.0,87,0.00,,,0.00,216,Wunderground v.1.15,2013-04-28 15:55:00,
2013-04-28 11:00:00,57.2,53.7,29.93,WNW,288,4.0,4.0,88,0.00,,,0.00,311,Wunderground v.1.15,2013-04-28 16:00:00,
2013-04-28 11:06:00,57.2,53.7,29.93,SW,223,3.0,6.0,88,0.00,,,0.00,244,Wunderground v.1.15,2013-04-28 16:06:00,
2013-04-28 11:12:00,57.5,54.0,29.92,NW,305,3.0,3.0,88,0.00,,,0.00,404,Wunderground v.1.15,2013-04-28 16:12:00,
2013-04-28 11:17:00,58.0,54.2,29.92,WNW,298,2.0,7.0,87,0.00,,,0.00,429,Wunderground v.1.15,2013-04-28 16:17:00,
2013-04-28 11:23:00,58.0,53.5,29.93,NNW,340,4.0,7.0,85,0.00,,,0.00,281,Wunderground v.1.15,2013-04-28 16:23:00,
2013-04-28 11:29:00,58.0,53.8,29.93,NW,304,4.0,7.0,86,0.00,,,0.00,160,Wunderground v.1.15,2013-04-28 16:29:00,
2013-04-28 11:35:00,57.9,54.1,29.92,WNW,291,4.0,11.0,87,0.00,,,0.00,257,Wunderground v.1.15,2013-04-28 16:35:00,
2013-04-28 11:41:00,58.3,54.4,29.92,NW,317,5.0,11.0,87,0.00,,,0.00,341,Wunderground v.1.15,2013-04-28 16:41:00,
2013-04-28 11:47:00,58.4,53.6,29.93,NW,321,6.0,11.0,84,0.00,,,0.00,204,Wunderground v.1.15,2013-04-28 16:47:00,
2013-04-28 11:53:00,58.4,53.6,29.93,NW,319,6.0,11.0,84,0.00,,,0.00,232,Wunderground v.1.15,2013-04-28 16:53:00,
2013-04-28 11:59:00,58.4,53.6,29.93,West,271,6.0,11.0,84,0.00,,,0.00,220,Wunderground v.1.15,2013-04-28 16:59:00,
2013-04-28 12:05:00,59.1,55.2,29.92,NW,304,5.0,5.0,87,0.00,,,0.00,668,Wunderground v.1.15,2013-04-28 17:05:00,
2013-04-28 12:11:00,59.7,54.2,29.93,NW,325,4.0,5.0,82,0.00,,,0.00,287,Wunderground v.1.15,2013-04-28 17:11:00,
2013-04-28 12:16:00,59.7,53.5,29.93,NW,311,3.0,6.0,80,0.00,,,0.00,237,Wunderground v.1.15,2013-04-28 17:16:00,
2013-04-28 12:22:00,59.2,53.4,29.93,NW,307,3.0,5.0,81,0.00,,,0.00,109,Wunderground v.1.15,2013-04-28 17:22:00,
2013-04-28 12:28:00,58.9,53.4,29.93,WNW,297,4.0,6.0,82,0.00,,,0.00,76,Wunderground v.1.15,2013-04-28 17:28:00,
2013-04-28 12:34:00,58.4,52.9,29.93,WNW,288,4.0,9.0,82,0.00,,,0.00,72,Wunderground v.1.15,2013-04-28 17:34:00,
2013-04-28 12:40:00,58.4,52.9,29.94,NW,308,3.0,9.0,82,0.00,,,0.00,67,Wunderground v.1.15,2013-04-28 17:40:00,
2013-04-28 12:46:00,58.3,53.2,29.94,WNW,297,4.0,9.0,83,0.00,,,0.00,53,Wunderground v.1.15,2013-04-28 17:46:00,
2013-04-28 12:52:00,58.2,53.4,29.94,WNW,295,5.0,9.0,84,0.00,,,0.00,63,Wunderground v.1.15,2013-04-28 17:52:00,
2013-04-28 12:57:00,58.1,53.6,29.94,WNW,296,4.0,9.0,85,0.00,,,0.00,63,Wunderground v.1.15,2013-04-28 17:57:00,
2013-04-28 13:02:00,58.0,53.5,29.94,NW,304,4.0,4.0,85,0.00,,,0.00,63,Wunderground v.1.15,2013-04-28 18:02:00,
2013-04-28 13:08:00,58.0,53.5,29.95,NW,310,4.0,5.0,85,0.00,,,0.00,74,Wunderground v.1.15,2013-04-28 18:08:00,
2013-04-28 13:14:00,58.0,53.2,29.95,WNW,288,3.0,5.0,84,0.00,,,0.00,53,Wunderground v.1.15,2013-04-28 18:14:00,
2013-04-28 13:20:00,57.8,53.3,29.94,NW,322,4.0,6.0,85,0.00,,,0.00,54,Wunderground v.1.15,2013-04-28 18:20:00,
2013-04-28 13:26:00,57.7,53.2,29.94,WNW,300,4.0,6.0,85,0.00,,,0.00,81,Wunderground v.1.15,2013-04-28 18:26:00,
2013-04-28 13:32:00,57.6,53.1,29.94,NNW,342,5.0,8.0,85,0.00,,,0.00,84,Wunderground v.1.15,2013-04-28 18:32:00,
2013-04-28 13:38:00,57.6,53.4,29.94,WNW,294,5.0,8.0,86,0.00,,,0.00,91,Wunderground v.1.15,2013-04-28 18:38:00,
2013-04-28 13:44:00,57.5,52.7,29.94,SW,234,6.0,8.0,84,0.00,,,0.00,90,Wunderground v.1.15,2013-04-28 18:44:00,
2013-04-28 13:50:00,57.4,52.9,29.94,WNW,284,6.0,8.0,85,0.00,,,0.00,98,Wunderground v.1.15,2013-04-28 18:50:00,
2013-04-28 13:56:00,57.5,52.7,29.94,WNW,296,5.0,8.0,84,0.00,,,0.00,109,Wunderground v.1.15,2013-04-28 18:56:00,
2013-04-28 14:02:00,57.8,53.0,29.95,WNW,284,4.0,5.0,84,0.00,,,0.00,139,Wunderground v.1.15,2013-04-28 19:02:00,
2013-04-28 14:08:00,58.1,53.0,29.95,NNW,329,4.0,5.0,83,0.00,,,0.00,185,Wunderground v.1.15,2013-04-28 19:08:00,
2013-04-28 14:14:00,58.5,53.4,29.95,West,265,4.0,7.0,83,0.00,,,0.00,236,Wunderground v.1.15,2013-04-28 19:14:00,
2013-04-28 14:20:00,58.8,53.6,29.95,WNW,294,4.0,4.0,83,0.00,,,0.00,267,Wunderground v.1.15,2013-04-28 19:20:00,
2013-04-28 14:26:00,59.2,53.7,29.94,WNW,290,4.0,6.0,82,0.00,,,0.00,197,Wunderground v.1.15,2013-04-28 19:26:00,
2013-04-28 14:32:00,59.0,53.2,29.94,WNW,300,5.0,7.0,81,0.00,,,0.00,139,Wunderground v.1.15,2013-04-28 19:32:00,
2013-04-28 14:38:00,58.9,53.4,29.94,NNW,327,5.0,7.0,82,0.00,,,0.00,214,Wunderground v.1.15,2013-04-28 19:38:00,
2013-04-28 14:43:00,59.1,53.9,29.93,NNW,329,5.0,8.0,83,0.00,,,0.00,276,Wunderground v.1.15,2013-04-28 19:43:00,
2013-04-28 14:49:00,59.1,53.9,29.93,NW,312,6.0,8.0,83,0.00,,,0.00,190,Wunderground v.1.15,2013-04-28 19:49:00,
2013-04-28 14:55:00,59.2,54.0,29.93,NNW,333,6.0,8.0,83,0.00,,,0.00,448,Wunderground v.1.15,2013-04-28 19:55:00,
2013-04-28 15:00:00,59.7,54.2,29.93,NNW,340,6.0,6.0,82,0.00,,,0.00,294,Wunderground v.1.15,2013-04-28 20:00:00,
2013-04-28 15:06:00,59.6,54.1,29.92,WNW,300,6.0,9.0,82,0.00,,,0.00,234,Wunderground v.1.15,2013-04-28 20:06:00,
2013-04-28 15:12:00,59.5,54.3,29.92,West,281,6.0,9.0,83,0.00,,,0.00,434,Wunderground v.1.15,2013-04-28 20:12:00,
2013-04-28 15:17:00,59.8,54.0,29.92,NW,309,6.0,9.0,81,0.00,,,0.00,374,Wunderground v.1.15,2013-04-28 20:17:00,
2013-04-28 15:23:00,59.7,53.5,29.92,WNW,286,7.0,9.0,80,0.00,,,0.00,301,Wunderground v.1.15,2013-04-28 20:23:00,
2013-04-28 15:29:00,59.5,54.0,29.91,WNW,298,7.0,9.0,82,0.00,,,0.00,267,Wunderground v.1.15,2013-04-28 20:29:00,
2013-04-28 15:35:00,59.6,54.4,29.91,NW,310,6.0,9.0,83,0.00,,,0.00,218,Wunderground v.1.15,2013-04-28 20:35:00,
2013-04-28 15:41:00,59.3,53.8,29.91,NW,314,6.0,7.0,82,0.00,,,0.00,158,Wunderground v.1.15,2013-04-28 20:41:00,
2013-04-28 15:47:00,59.0,53.8,29.91,NW,320,6.0,10.0,83,0.00,,,0.00,148,Wunderground v.1.15,2013-04-28 20:47:00,
2013-04-28 15:53:00,58.9,53.7,29.91,NNW,329,5.0,9.0,83,0.00,,,0.00,146,Wunderground v.1.15,2013-04-28 20:53:00,
2013-04-28 15:59:00,59.0,53.8,29.91,WNW,294,5.0,9.0,83,0.00,,,0.00,221,Wunderground v.1.15,2013-04-28 20:59:00,
2013-04-28 16:05:00,59.4,53.9,29.91,WNW,290,5.0,5.0,82,0.00,,,0.00,302,Wunderground v.1.15,2013-04-28 21:05:00,
2013-04-28 16:10:00,59.7,53.5,29.91,West,281,5.0,6.0,80,0.00,,,0.00,269,Wunderground v.1.15,2013-04-28 21:10:00,
2013-04-28 16:16:00,59.9,54.1,29.91,NW,309,6.0,8.0,81,0.00,,,0.00,285,Wunderground v.1.15,2013-04-28 21:16:00,
2013-04-28 16:22:00,59.9,53.7,29.91,WNW,284,5.0,8.0,80,0.00,,,0.00,276,Wunderground v.1.15,2013-04-28 21:22:00,
2013-04-28 16:28:00,59.9,53.7,29.92,WNW,286,5.0,8.0,80,0.00,,,0.00,213,Wunderground v.1.15,2013-04-28 21:28:00,
2013-04-28 16:34:00,59.9,53.0,29.92,NW,319,5.0,10.0,78,0.00,,,0.00,192,Wunderground v.1.15,2013-04-28 21:34:00,
2013-04-28 16:40:00,60.0,53.8,29.92,NW,309,5.0,5.0,80,0.00,,,0.00,160,Wunderground v.1.15,2013-04-28 21:40:00,
2013-04-28 16:46:00,59.8,53.3,29.92,West,269,4.0,10.0,79,0.00,,,0.00,160,Wunderground v.1.15,2013-04-28 21:46:00,
2013-04-28 16:51:00,59.9,54.1,29.92,NW,313,3.0,10.0,81,0.00,,,0.00,139,Wunderground v.1.15,2013-04-28 21:51:00,
2013-04-28 16:57:00,59.9,54.7,29.92,West,281,3.0,10.0,83,0.00,,,0.00,123,Wunderground v.1.15,2013-04-28 21:57:00,
2013-04-28 17:03:00,59.8,53.3,29.92,NNW,331,4.0,5.0,79,0.00,,,0.00,123,Wunderground v.1.15,2013-04-28 22:03:00,
2013-04-28 17:09:00,59.8,53.6,29.92,WNW,294,4.0,5.0,80,0.00,,,0.00,148,Wunderground v.1.15,2013-04-28 22:09:00,
2013-04-28 17:15:00,60.2,54.7,29.92,NW,324,3.0,6.0,82,0.00,,,0.00,232,Wunderground v.1.15,2013-04-28 22:15:00,
2013-04-28 17:21:00,60.2,54.0,29.92,WNW,283,3.0,3.0,80,0.00,,,0.00,176,Wunderground v.1.15,2013-04-28 22:21:00,
2013-04-28 17:27:00,60.5,54.3,29.92,WNW,290,3.0,5.0,80,0.00,,,0.00,209,Wunderground v.1.15,2013-04-28 22:27:00,
2013-04-28 17:32:00,60.6,54.4,29.92,WNW,296,3.0,9.0,80,0.00,,,0.00,155,Wunderground v.1.15,2013-04-28 22:32:00,
2013-04-28 17:38:00,60.3,54.1,29.92,WNW,288,4.0,9.0,80,0.00,,,0.00,132,Wunderground v.1.15,2013-04-28 22:38:00,
2013-04-28 17:44:00,60.3,54.4,29.92,NW,313,3.0,9.0,81,0.00,,,0.00,183,Wunderground v.1.15,2013-04-28 22:44:00,
2013-04-28 17:50:00,60.6,54.4,29.92,NW,309,3.0,9.0,80,0.00,,,0.00,153,Wunderground v.1.15,2013-04-28 22:50:00,
2013-04-28 17:56:00,60.6,54.0,29.92,West,270,2.0,9.0,79,0.00,,,0.00,148,Wunderground v.1.15,2013-04-28 22:56:00,
2013-04-28 18:02:00,60.6,54.0,29.92,WNW,300,2.0,3.0,79,0.00,,,0.00,120,Wunderground v.1.15,2013-04-28 23:02:00,
2013-04-28 18:08:00,60.7,54.5,29.91,NW,310,3.0,5.0,80,0.00,,,0.00,123,Wunderground v.1.15,2013-04-28 23:08:00,
2013-04-28 18:14:00,60.5,54.3,29.92,NW,315,4.0,5.0,80,0.00,,,0.00,171,Wunderground v.1.15,2013-04-28 23:14:00,
2013-04-28 18:20:00,60.4,54.2,29.92,NW,323,4.0,5.0,80,0.00,,,0.00,84,Wunderground v.1.15,2013-04-28 23:20:00,
2013-04-28 18:26:00,60.0,54.2,29.91,West,279,4.0,6.0,81,0.00,,,0.00,77,Wunderground v.1.15,2013-04-28 23:26:00,
2013-04-28 18:32:00,59.5,53.3,29.92,West,280,4.0,8.0,80,0.00,,,0.00,62,Wunderground v.1.15,2013-04-28 23:32:00,
2013-04-28 18:37:00,59.1,53.6,29.92,NW,307,4.0,8.0,82,0.00,,,0.00,42,Wunderground v.1.15,2013-04-28 23:37:00,
2013-04-28 18:43:00,58.8,53.6,29.92,NW,311,3.0,8.0,83,0.00,,,0.00,37,Wunderground v.1.15,2013-04-28 23:43:00,
2013-04-28 18:49:00,58.7,53.9,29.92,WNW,299,3.0,8.0,84,0.00,,,0.00,42,Wunderground v.1.15,2013-04-28 23:49:00,
2013-04-28 18:55:00,58.6,53.8,29.92,NW,305,2.0,8.0,84,0.00,,,0.00,32,Wunderground v.1.15,2013-04-28 23:55:00,
2013-04-28 19:00:00,58.6,54.1,29.92,NW,312,2.0,3.0,85,0.00,,,0.00,26,Wunderground v.1.15,2013-04-29 00:00:00,
2013-04-28 19:06:00,58.6,54.1,29.92,NW,311,2.0,3.0,85,0.00,,,0.00,16,Wunderground v.1.15,2013-04-29 00:06:00,
2013-04-28 19:12:00,58.6,54.1,29.92,NW,311,2.0,2.0,85,0.00,,,0.00,11,Wunderground v.1.15,2013-04-29 00:12:00,
2013-04-28 19:18:00,58.5,54.3,29.92,NW,311,1.0,2.0,86,0.00,,,0.00,9,Wunderground v.1.15,2013-04-29 00:18:00,
2013-04-28 19:23:00,58.5,54.3,29.92,NW,311,1.0,1.0,86,0.00,,,0.00,5,Wunderground v.1.15,2013-04-29 00:23:00,
2013-04-28 19:29:00,58.4,54.2,29.92,NW,311,0.0,1.0,86,0.00,,,0.00,0,Wunderground v.1.15,2013-04-29 00:29:00,
2013-04-28 19:35:00,58.4,54.5,29.92,NW,311,0.0,7.0,87,0.00,,,0.00,0,Wunderground v.1.15,2013-04-29 00:35:00,
2013-04-28 19:41:00,58.3,54.4,29.92,NW,311,0.0,7.0,87,0.00,,,0.00,0,Wunderground v.1.15,2013-04-29 00:41:00,
2013-04-28 19:47:00,58.2,54.3,29.92,NW,311,0.0,7.0,87,0.00,,,0.00,0,Wunderground v.1.15,2013-04-29 00:47:00,
2013-04-28 19:53:00,58.1,54.2,29.92,NW,311,0.0,7.0,87,0.00,,,0.00,0,Wunderground v.1.15,2013-04-29 00:53:00,
2013-04-28 19:59:00,58.0,54.5,29.92,NW,311,0.0,7.0,88,0.00,,,0.00,0,Wunderground v.1.15,2013-04-29 00:59:00,
2013-04-28 20:04:00,57.9,54.7,29.92,NW,311,0.0,0.0,89,0.00,,,0.00,0,Wunderground v.1.15,2013-04-29 01:04:00,
2013-04-28 20:10:00,57.7,54.5,29.93,NW,311,0.0,1.0,89,0.00,,,0.00,0,Wunderground v.1.15,2013-04-29 01:10:00,
2013-04-28 20:16:00,57.7,54.2,29.93,NW,311,0.0,1.0,88,0.00,,,0.00,0,Wunderground v.1.15,2013-04-29 01:16:00,
2013-04-28 20:22:00,57.7,53.9,29.93,NW,311,0.0,1.0,87,0.00,,,0.00,0,Wunderground v.1.15,2013-04-29 01:22:00,
2013-04-28 20:28:00,57.6,54.1,29.93,NW,311,0.0,1.0,88,0.00,,,0.00,0,Wunderground v.1.15,2013-04-29 01:28:00,
2013-04-28 20:34:00,57.6,54.1,29.93,NW,311,0.0,3.0,88,0.00,,,0.00,0,Wunderground v.1.15,2013-04-29 01:34:00,
2013-04-28 20:39:00,57.5,54.0,29.93,NW,311,0.0,3.0,88,0.00,,,0.00,0,Wunderground v.1.15,2013-04-29 01:39:00,
2013-04-28 20:45:00,57.5,54.0,29.93,NW,311,0.0,3.0,88,0.00,,,0.00,0,Wunderground v.1.15,2013-04-29 01:45:00,
2013-04-28 20:51:00,57.4,53.9,29.93,NW,311,0.0,3.0,88,0.00,,,0.00,0,Wunderground v.1.15,2013-04-29 01:51:00,
2013-04-28 20:57:00,57.4,54.5,29.93,NW,311,0.0,3.0,90,0.00,,,0.00,0,Wunderground v.1.15,2013-04-29 01:57:00,
2013-04-28 21:03:00,57.3,54.1,29.94,NW,311,0.0,0.0,89,0.00,,,0.00,0,Wunderground v.1.15,2013-04-29 02:03:00,
2013-04-28 21:09:00,57.2,54.3,29.94,NW,311,0.0,0.0,90,0.00,,,0.00,0,Wunderground v.1.15,2013-04-29 02:09:00,
2013-04-28 21:15:00,57.1,54.5,29.94,NW,311,0.0,0.0,91,0.00,,,0.00,0,Wunderground v.1.15,2013-04-29 02:15:00,
2013-04-28 21:20:00,57.1,54.8,29.94,NW,311,0.0,0.0,92,0.00,,,0.00,0,Wunderground v.1.15,2013-04-29 02:20:00,
2013-04-28 21:26:00,57.0,54.7,29.94,NW,311,0.0,0.0,92,0.00,,,0.00,0,Wunderground v.1.15,2013-04-29 02:26:00,
2013-04-28 21:32:00,56.9,54.6,29.94,NW,311,0.0,2.0,92,0.00,,,0.00,0,Wunderground v.1.15,2013-04-29 02:32:00,
2013-04-28 21:38:00,56.8,54.5,29.94,NW,325,1.0,2.0,92,0.00,,,0.00,0,Wunderground v.1.15,2013-04-29 02:38:00,
2013-04-28 21:44:00,56.8,53.9,29.94,NW,325,2.0,2.0,90,0.00,,,0.00,0,Wunderground v.1.15,2013-04-29 02:44:00,
2013-04-28 21:50:00,56.7,54.1,29.94,NW,325,2.0,2.0,91,0.00,,,0.00,0,Wunderground v.1.15,2013-04-29 02:50:00,
2013-04-28 21:56:00,56.4,53.8,29.94,NW,325,2.0,2.0,91,0.00,,,0.00,0,Wunderground v.1.15,2013-04-29 02:56:00,
2013-04-28 22:02:00,56.0,53.4,29.93,NW,325,1.0,2.0,91,0.00,,,0.00,0,Wunderground v.1.15,2013-04-29 03:02:00,
2013-04-28 22:07:00,55.8,53.2,29.93,NW,325,1.0,2.0,91,0.00,,,0.00,0,Wunderground v.1.15,2013-04-29 03:07:00,
2013-04-28 22:13:00,55.5,52.9,29.93,NW,325,1.0,1.0,91,0.00,,,0.00,0,Wunderground v.1.15,2013-04-29 03:13:00,
2013-04-28 22:19:00,55.3,52.7,29.93,NW,325,0.0,1.0,91,0.00,,,0.00,0,Wunderground v.1.15,2013-04-29 03:19:00,
2013-04-28 22:25:00,55.0,52.7,29.93,NW,325,0.0,0.0,92,0.00,,,0.00,0,Wunderground v.1.15,2013-04-29 03:25:00,
2013-04-28 22:31:00,54.6,52.6,29.93,NW,325,0.0,2.0,93,0.00,,,0.00,0,Wunderground v.1.15,2013-04-29 03:31:00,
2013-04-28 22:37:00,54.1,52.1,29.93,NW,325,0.0,2.0,93,0.00,,,0.00,0,Wunderground v.1.15,2013-04-29 03:37:00,
2013-04-28 22:43:00,53.7,51.7,29.92,NW,325,0.0,2.0,93,0.00,,,0.00,0,Wunderground v.1.15,2013-04-29 03:43:00,
2013-04-28 22:48:00,53.7,52.3,29.92,NW,325,1.0,2.0,95,0.00,,,0.00,0,Wunderground v.1.15,2013-04-29 03:48:00,
2013-04-28 22:54:00,53.3,51.6,29.93,NW,325,0.0,2.0,94,0.00,,,0.00,0,Wunderground v.1.15,2013-04-29 03:54:00,
2013-04-28 23:00:00,53.0,51.3,29.92,NW,325,0.0,0.0,94,0.00,,,0.00,0,Wunderground v.1.15,2013-04-29 04:00:00,
2013-04-28 23:01:00,53.0,51.3,29.92,NW,325,0.0,0.0,94,0.00,,,0.00,0,Wunderground v.1.15,2013-04-29 04:01:00,
2013-04-28 23:02:00,52.9,51.2,29.92,NW,325,0.0,0.0,94,0.00,,,0.00,0,Wunderground v.1.15,2013-04-29 04:02:00,
2013-04-28 23:04:00,52.7,51.0,29.92,NW,325,0.0,0.0,94,0.00,,,0.00,0,Wunderground v.1.15,2013-04-29 04:04:00,
2013-04-28 23:05:00,52.6,50.9,29.92,NW,325,0.0,0.0,94,0.00,,,0.00,0,Wunderground v.1.15,2013-04-29 04:05:00,
2013-04-28 23:11:00,52.4,51.0,29.92,NW,325,0.0,0.0,95,0.00,,,0.00,0,Wunderground v.1.15,2013-04-29 04:11:00,
2013-04-28 23:17:00,52.2,50.8,29.92,NW,325,0.0,0.0,95,0.00,,,0.00,0,Wunderground v.1.15,2013-04-29 04:17:00,
2013-04-28 23:18:00,52.1,50.7,29.92,NW,325,0.0,0.0,95,0.00,,,0.00,0,Wunderground v.1.15,2013-04-29 04:18:00,
2013-04-28 23:24:00,51.9,50.5,29.92,NW,325,0.0,0.0,95,0.00,,,0.00,0,Wunderground v.1.15,2013-04-29 04:24:00,
2013-04-28 23:29:00,51.8,50.7,29.92,NW,325,0.0,0.0,96,0.00,,,0.00,0,Wunderground v.1.15,2013-04-29 04:29:00,
2013-04-28 23:35:00,51.7,50.6,29.93,NW,325,0.0,2.0,96,0.00,,,0.00,0,Wunderground v.1.15,2013-04-29 04:35:00,
2013-04-28 23:41:00,51.6,50.5,29.93,NW,325,0.0,2.0,96,0.00,,,0.00,0,Wunderground v.1.15,2013-04-29 04:41:00,
2013-04-28 23:47:00,51.5,50.4,29.93,NW,325,0.0,2.0,96,0.00,,,0.00,0,Wunderground v.1.15,2013-04-29 04:47:00,
2013-04-28 23:53:00,51.4,50.3,29.93,NW,325,0.0,2.0,96,0.00,,,0.00,0,Wunderground v.1.15,2013-04-29 04:53:00,
2013-04-28 23:59:00,51.2,50.1,29.93,NW,325,0.0,2.0,96,0.00,,,0.00,0,Wunderground v.1.15,2013-04-29 04:59:00,